[Iaude] MPEC H33: 2024 HO [a=1.79,e=0.50,i=1.0,H=28.7]
    mpec at cfa.harvard.edu 
    mpec at cfa.harvard.edu
       
    Fri Apr 19 07:45:18 EDT 2024
    
    
  
M.P.E.C. 2024-H33                                Issued 2024 April 19, 11:43 UT
     The Minor Planet Electronic Circulars contain information on unusual
         minor planets, routine data on comets and natural satellites,
         and occasional editorial announcements.  They are published
    on behalf of Division F of the International Astronomical Union by the
          Minor Planet Center, Smithsonian Astrophysical Observatory,
                          Cambridge, MA 02138, U.S.A.
			  
             Prepared using the Tamkin Foundation Computer Network
                              MPC at CFA.HARVARD.EDU
            URL https://www.minorplanetcenter.net/    ISSN 1523-6714
                                    2024 HO                                     
Observations:
     K24H00O*1C2024 04 18.38761114 53 37.630-16 45 34.70         18.03GVEH033703
     K24H00O 1C2024 04 18.38988214 53 45.150-16 45 29.50               VEH033703
     K24H00O 1C2024 04 18.39214714 53 52.550-16 45 23.90         18.03GVEH033703
     K24H00O 1C2024 04 18.39441014 54 00.110-16 45 18.30         17.73GVEH033703
     K24H00O  C2024 04 18.42964414 55 47.270-16 44 02.84         18.1 GVEH033H01
     K24H00O  C2024 04 18.43312014 55 58.033-16 43 52.28         18.1 GVEH033H01
     K24H00O mC2024 04 18.43794914 56 17.257-16 43 20.78         18.18GVEH033I52
     K24H00O mC2024 04 18.43812814 56 17.794-16 43 20.14         18.15GVEH033I52
     K24H00O mC2024 04 18.43829814 56 18.301-16 43 19.78         18.28GVEH033I52
     K24H00O mC2024 04 18.43847614 56 18.848-16 43 19.20         18.17GVEH033I52
     K24H00O  C2024 04 18.44475314 56 33.662-16 43 16.07         18.2 GVEH033H01
     K24H00O  C2024 04 18.45037714 56 50.695-16 42 58.07         18.1 GVEH033H01
     K24H00O KC2024 04 18.64795 15 06 59.63 -16 14 23.3          18.6 VqEH033E23
     K24H00O KC2024 04 18.65727 15 07 16.91 -16 14 17.5          19.0 VqEH033E23
     K24H00O KC2024 04 18.66051 15 07 22.83 -16 14 15.6          19.4 VqEH033E23
     K24H00O KB2024 04 18.95484915 17 03.25 -16 32 08.1          18.5 GXEH033958
     K24H00O KB2024 04 18.95915715 17 08.25 -16 32 04.7          19.0 GXEH033958
     K24H00O KB2024 04 18.95998215 17 09.26 -16 32 00.1          19.6 GXEH033958
     K24H00O KB2024 04 18.96347215 17 13.20 -16 32 03.9          18.8 GXEH033958
     K24H00O KC2024 04 18.99444615 17 46.06 -16 31 49.1          19.3 GXEH033I93
     K24H00O KC2024 04 18.99790615 17 49.73 -16 31 46.2          18.9 GXEH033I93
     K24H00O KC2024 04 19.00122915 17 53.21 -16 31 43.9          19.0 GXEH033I93
     K24H00O KB2024 04 19.01529615 18 08.71 -16 31 22.8          19.3 GXEH033958
     K24H00O KB2024 04 19.02023415 18 13.61 -16 31 19.7          19.2 GXEH033958
     K24H00O KB2024 04 19.02512715 18 18.46 -16 31 15.7          19.4 GXEH033958
     K24H00O |C2024 04 19.27003015 22 39.450-16 10 38.00         19.3 GVEH033807
     K24H00O |C2024 04 19.27223015 22 40.860-16 10 36.90         20.0 GVEH033807
     K24H00O |C2024 04 19.27443015 22 42.280-16 10 35.80         19.2 GVEH033807
     K24H00O |C2024 04 19.27663015 22 43.660-16 10 34.70         19.8 GVEH033807
Observer details:
703 Catalina Sky Survey.  Observer V. F. Carvajal.  Measurers T. Beuden, V. F.
    Carvajal, D. Fay, J. B. Fazekas, D. C. Fuls, A. R. Gibbs, A. D. Grauer, H.
    Groeller, J. K. Hogan, R. A. Kowalski, S. M. Larson, G. J. Leonard, D.
    Rankin, R. L. Seaman, F. C. Shelly, K. W. Wierzchos.  0.68-m Schmidt + 10K
    CCD.
807 Cerro Tololo Observatory, La Serena.  Observers T. Linder, R. Holmes.
    0.61-m f/6.8 Ritchey-Chretien + CCD.
958 Observatoire de Dax.  Observer P. Dupouy.  0.50-m f/4.5 Reflector + CMO.
E23 Arcadia.  Observer A. Hidas.  0.35-m f/1.9 reflector + CCD.
H01 Magdalena Ridge Observatory, Socorro.  Observers W. H. Ryan, E. V. Ryan.
    Measurer W. H. Ryan.  2.4-m f/8.9 Ritchey-Chretien + CCD.
I52 Steward Observatory, Mt. Lemmon Station.  Observer J. K. Hogan.  Measurers
    T. Beuden, V. F. Carvajal, D. Fay, J. B. Fazekas, D. C. Fuls, A. R. Gibbs,
    A. D. Grauer, H. Groeller, J. K. Hogan, R. A. Kowalski, S. M. Larson, G.
    J. Leonard, D. Rankin, R. L. Seaman, F. C. Shelly, K. W. Wierzchos.  1.0-m
    prime focus + CCD.
I93 St Pardon de Conques.  Observer F. Losse.  0.40-m f/3.7 reflector + CCD.
Orbital elements:
2024 HO                                                  Earth MOID = 0.0004 AU
Epoch 2024 Mar. 31.0 TT = JDT 2460400.5                 Veres                   
M   7.25185              (2000.0)            P               Q                  
n   0.41120330     Peri.  313.01896     -0.94924301     -0.31443254             
a   1.7910113      Node   208.65748     +0.29342079     -0.87560950             
e   0.4958113      Incl.    0.99882     +0.11332232     -0.36666086             
P   2.40           H   28.79          G   0.15           U   7                  
Residuals in seconds of arc
240418 703  0.1+  0.4+    240418 H01  0.0   0.0     240418 I93  0.8-  0.5+
240418 703  0.1+  0.2+    240418 H01  0.3+  0.0     240419 I93  0.9-  0.2+
240418 703  0.9-  0.4+    240418 E23  1.1-  0.0     240419 958  0.0   1.0+
240418 703  0.9+  0.5+    240418 E23  0.8+  0.3+    240419 958  1.1-  0.3-
240418 H01  0.2+  0.0     240418 E23  1.1+  0.0     240419 958  1.6-  0.7-
240418 H01  0.1+  0.0     240418 958  0.6-  5.6-    240419 807  0.0   0.2+
240418 I52  0.0   0.0     240418 958  0.2-  4.2-    240419 807  0.0   0.1+
240418 I52  0.0   0.1+    240418 958  0.7+  0.1+    240419 807  0.2+  0.1-
240418 I52  0.2-  0.1-    240418 958  0.0   5.4-    240419 807  0.2-  0.2-
240418 I52  0.0   0.0     240418 I93  1.0-  0.2+
Ephemeris:
2024 HO                  a,e,i = 1.79, 0.50, 1                   q = 0.9030
Date    TT    R. A. (2000) Decl.     Delta      r    Elong.  Phase     V
2024 03 20    03 27 01.6 +15 23 44   0.1678  0.9070    53.8   117.6    29.4
...
2024 04 04    03 40 30.0 +15 51 25   0.07847 0.9436    42.3   134.5    29.3
...
2024 04 12    03 48 20.9 +15 52 04   0.03201 0.9768    36.4   142.5    28.5
...
2024 04 18    14 09 35.7 -16 09 29   0.0028601.0069   171.9     8.1    16.7
2024 04 19    15 17 31.4 -16 16 54   0.0084631.0122   157.7    22.1    19.5
2024 04 20    15 31 00.8 -16 08 39   0.01419 1.0175   155.5    24.1    20.7
...
2024 04 26    15 44 23.3 -15 55 57   0.04886 1.0517   158.1    20.9    23.4
...
2024 05 04    15 45 06.3 -15 51 25   0.09633 1.1019   165.5    13.2    24.7
...
2024 05 19    15 42 12.1 -15 54 26   0.1943  1.2056   176.1     3.2    26.0
M. P. C. Staff               (C) Copyright 2024 MPC           M.P.E.C. 2024-H33
    
    
More information about the Iaude
mailing list